Telstar 302

operational
NORAD ID: 15237 Int'l Des: 1984-093 Owner: ATTS Country: US
HEOCIRCULAR

About Telstar 302

Description loading...

Live Position

Loading 3D Globe...

Upcoming Passes

Altitude History

Altitude vs Time

uPlot chart will show altitude changes over time

Two-Line Element Set

1 15237U 84093D 26061.48919669 -.00000162 00000-0 00000-0 0 9999
2 15237 14.1896 346.1596 0001373 251.0183 268.2600 0.99787518 45374
Epoch: Mar 2, 2026 • Age: 33 hours

Current Status

Altitude 35925.7 km
Velocity 3.07 km/s
Sub-Earth Point 12.51°N, 168.25°E
Launch Date Aug 30, 1984
Age 41.5 years
Type other

Technical Details

Classification Payload
Mass 619.00 kg
Dry Mass 522.00 kg
Total Mass 1225.00 kg
Length 6.60 m
Diameter 2.20 m
Span 6.60 m
Shape Cyl
Manufacturer HSES
Bus Type HS-376
Phase Status In Orbit
Owner/State ATTS/US

Large Constellations

Loading constellations...